Location: St. Louis
(38.6270°N, 90.1994°W)
Time: 08:31:23
(UTC-06:00)

Courier 1B Rocket - Visible Passes

Search period start: 09 December 2021 00:00
Search period end: 19 December 2021 00:00
Orbit: 920 x 1202 km, 28.2° (Epoch: 08 December)

Date Brightness Start Highest point End Pass type
(mag) Time Alt. Az. Time Alt. Az. Time Alt. Az.
09 Dec 7.0 18:22:50 10° S 18:26:14 14° SSE 18:28:40 12° SE visible
09 Dec 7.2 20:13:11 10° SW 20:15:02 17° SSW 20:15:02 17° SSW visible
10 Dec 6.6 19:12:31 10° SSW 19:17:51 24° SSE 19:17:51 24° SSE visible
11 Dec 6.9 18:12:07 10° SSW 18:17:07 20° SSE 18:20:39 14° SE visible
11 Dec 6.9 20:03:44 10° SW 20:07:01 24° SSW 20:07:01 24° SSW visible
12 Dec 7.2 17:12:13 10° S 17:16:12 15° SSE 17:20:06 10° ESE visible
12 Dec 6.3 19:02:51 10° SW 19:09:00 29° SSE 19:09:48 28° SSE visible
12 Dec 7.7 20:55:36 10° WSW 20:56:10 12° WSW 20:56:10 12° WSW visible
13 Dec 6.7 18:02:07 10° SW 18:08:02 25° SSE 18:12:35 14° ESE visible
13 Dec 6.5 19:54:28 10° WSW 19:58:57 30° SSW 19:58:57 30° SSW visible
14 Dec 7.1 17:01:40 10° SSW 17:07:04 21° SSE 17:12:17 10° ESE visible
14 Dec 6.2 18:53:24 10° SW 18:59:58 34° S 19:01:44 30° SE visible
14 Dec 7.5 20:46:34 10° WSW 20:48:06 16° WSW 20:48:06 16° WSW visible
15 Dec 6.5 17:52:28 10° SW 17:58:57 31° SSE 18:04:30 12° ESE visible
15 Dec 6.3 19:45:18 10° WSW 19:50:52 34° SSW 19:50:52 34° SSW visible
16 Dec 6.2 18:44:07 10° WSW 18:50:56 37° S 18:53:40 28° SE visible
16 Dec 7.3 20:37:37 10° WSW 20:40:02 19° WSW 20:40:02 19° WSW visible
17 Dec 6.5 17:43:02 10° SW 17:49:53 35° S 17:56:25 10° ESE visible
17 Dec 6.2 19:36:15 10° WSW 19:42:51 35° S 19:42:51 35° S visible
18 Dec 6.3 18:34:58 10° WSW 18:41:54 37° S 18:45:42 23° SE visible
18 Dec 7.1 20:28:47 10° WSW 20:32:05 22° SW 20:32:05 22° SW visible
